Time,TemperatureF,DewpointF,PressureIn,WindDirection,WindDirectionDegrees,WindSpeedMPH,WindSpeedGustMPH,Humidity,HourlyPrecipIn,Conditions,Clouds,dailyrainin,SoftwareType,DateUTC
2013-02-11 00:00:00,33.9,25.1,30.04,WNW,293,0.2,6.4,70,0.00,,,0.00,WUHU215HW,2013-02-11 06:00:00,
2013-02-11 00:01:00,33.9,24.9,30.04,West,270,0.0,6.4,70,0.00,,,0.00,WUHU215HW,2013-02-11 06:01:00,
2013-02-11 00:04:00,33.9,25.1,30.04,West,270,5.5,6.4,70,0.00,,,0.00,WUHU215HW,2013-02-11 06:04:00,
2013-02-11 00:06:00,33.9,25.1,30.04,West,281,4.0,6.0,70,0.00,,,0.00,WUHU215HW,2013-02-11 06:06:00,
2013-02-11 00:07:00,33.8,24.9,30.04,WNW,301,2.9,6.0,70,0.00,,,0.00,WUHU215HW,2013-02-11 06:07:00,
2013-02-11 00:08:00,33.8,24.9,30.04,WSW,248,2.6,6.0,70,0.00,,,0.00,WUHU215HW,2013-02-11 06:08:00,
2013-02-11 00:10:00,33.8,24.6,30.04,North,0,2.9,6.0,69,0.00,,,0.00,WUHU215HW,2013-02-11 06:10:00,
2013-02-11 00:12:00,33.8,24.2,30.04,North,7,2.8,6.0,68,0.00,,,0.00,WUHU215HW,2013-02-11 06:12:00,
2013-02-11 00:14:00,33.8,24.2,30.04,NNE,21,1.6,5.5,68,0.00,,,0.00,WUHU215HW,2013-02-11 06:14:00,
2013-02-11 00:16:00,33.8,24.2,30.04,SW,225,0.4,2.9,68,0.00,,,0.00,WUHU215HW,2013-02-11 06:16:00,
2013-02-11 00:17:00,33.8,24.2,30.04,NW,315,3.1,3.1,68,0.00,,,0.00,WUHU215HW,2013-02-11 06:17:00,
2013-02-11 00:19:00,33.8,24.2,30.04,NW,315,4.6,4.6,68,0.00,,,0.00,WUHU215HW,2013-02-11 06:19:00,
2013-02-11 00:20:00,33.8,24.2,30.04,NW,315,4.6,4.6,68,0.00,,,0.00,WUHU215HW,2013-02-11 06:20:00,
2013-02-11 00:21:00,33.8,23.9,30.04,NW,315,4.6,4.6,67,0.00,,,0.00,WUHU215HW,2013-02-11 06:21:00,
2013-02-11 00:23:00,33.6,23.7,30.04,NW,304,3.6,6.0,67,0.00,,,0.00,WUHU215HW,2013-02-11 06:23:00,
2013-02-11 00:25:00,33.6,24.0,30.04,SW,225,2.0,6.0,68,0.00,,,0.00,WUHU215HW,2013-02-11 06:25:00,
2013-02-11 00:26:00,33.6,24.0,30.04,SW,225,2.0,6.0,68,0.00,,,0.00,WUHU215HW,2013-02-11 06:26:00,
2013-02-11 00:28:00,33.6,24.0,30.04,SW,225,2.0,6.0,68,0.00,,,0.00,WUHU215HW,2013-02-11 06:28:00,
2013-02-11 00:30:00,33.6,24.0,30.04,West,270,6.4,6.4,68,0.00,,,0.00,WUHU215HW,2013-02-11 06:30:00,
2013-02-11 00:32:00,33.6,24.0,30.04,West,267,4.5,6.4,68,0.00,,,0.00,WUHU215HW,2013-02-11 06:32:00,
2013-02-11 00:35:00,33.6,24.0,30.04,SSE,158,2.4,6.4,68,0.00,,,0.00,WUHU215HW,2013-02-11 06:35:00,
2013-02-11 00:37:00,33.6,24.0,30.04,SSW,203,3.3,6.4,68,0.00,,,0.00,WUHU215HW,2013-02-11 06:37:00,
2013-02-11 00:38:00,33.6,24.0,30.04,SSW,192,2.7,6.4,68,0.00,,,0.00,WUHU215HW,2013-02-11 06:38:00,
2013-02-11 00:40:00,33.6,24.0,30.04,SSE,158,2.0,6.4,68,0.00,,,0.00,WUHU215HW,2013-02-11 06:40:00,
2013-02-11 00:43:00,33.6,24.0,30.04,SSE,158,2.0,3.3,68,0.00,,,0.00,WUHU215HW,2013-02-11 06:43:00,
2013-02-11 00:44:00,33.6,24.0,30.04,SSE,158,2.0,3.3,68,0.00,,,0.00,WUHU215HW,2013-02-11 06:44:00,
2013-02-11 00:45:00,33.6,24.0,30.04,SSE,158,2.0,3.3,68,0.00,,,0.00,WUHU215HW,2013-02-11 06:45:00,
2013-02-11 00:50:00,33.4,24.0,30.04,WSW,248,1.5,2.0,69,0.00,,,0.00,WUHU215HW,2013-02-11 06:50:00,
2013-02-11 00:52:00,33.4,24.2,30.04,NW,315,5.3,5.3,69,0.00,,,0.00,WUHU215HW,2013-02-11 06:52:00,
2013-02-11 00:53:00,33.4,24.2,30.04,NW,309,3.6,5.3,68,0.00,,,0.00,WUHU215HW,2013-02-11 06:53:00,
2013-02-11 00:54:00,33.4,24.2,30.04,WNW,292,1.9,5.3,68,0.00,,,0.00,WUHU215HW,2013-02-11 06:54:00,
2013-02-11 00:57:00,33.4,24.2,30.04,WSW,248,1.1,5.3,68,0.00,,,0.00,WUHU215HW,2013-02-11 06:57:00,
2013-02-11 01:02:00,33.4,23.9,30.04,North,0,6.7,6.7,68,0.00,,,0.00,WUHU215HW,2013-02-11 07:02:00,
2013-02-11 01:03:00,33.4,23.9,30.04,North,0,6.7,6.7,68,0.00,,,0.00,WUHU215HW,2013-02-11 07:03:00,
2013-02-11 01:05:00,33.4,23.9,30.04,West,270,3.8,6.7,68,0.00,,,0.00,WUHU215HW,2013-02-11 07:05:00,
2013-02-11 01:07:00,33.4,23.9,30.04,WNW,290,2.1,6.7,68,0.00,,,0.00,WUHU215HW,2013-02-11 07:07:00,
2013-02-11 01:11:00,33.2,24.1,30.04,ESE,113,4.0,6.7,69,0.00,,,0.00,WUHU215HW,2013-02-11 07:11:00,
2013-02-11 01:12:00,33.2,24.1,30.04,ESE,113,4.0,6.7,69,0.00,,,0.00,WUHU215HW,2013-02-11 07:12:00,
2013-02-11 01:13:00,33.2,24.1,30.04,NNW,338,0.0,6.7,69,0.00,,,0.00,WUHU215HW,2013-02-11 07:13:00,
2013-02-11 01:17:00,32.7,23.6,30.04,SW,232,1.5,4.0,69,0.00,,,0.00,WUHU215HW,2013-02-11 07:17:00,
2013-02-11 01:18:00,32.7,23.6,30.04,WSW,240,1.5,4.0,69,0.00,,,0.00,WUHU215HW,2013-02-11 07:18:00,
2013-02-11 01:19:00,32.7,23.6,30.04,WSW,248,1.5,4.0,69,0.00,,,0.00,WUHU215HW,2013-02-11 07:19:00,
2013-02-11 01:22:00,32.5,23.6,30.04,NNW,338,2.6,2.6,69,0.00,,,0.00,WUHU215HW,2013-02-11 07:22:00,
2013-02-11 01:25:00,32.3,23.3,30.04,WSW,248,1.7,2.6,69,0.00,,,0.00,WUHU215HW,2013-02-11 07:25:00,
2013-02-11 01:26:00,32.3,23.3,30.04,WSW,248,1.7,2.6,69,0.00,,,0.00,WUHU215HW,2013-02-11 07:26:00,
2013-02-11 01:27:00,32.1,23.1,30.04,SW,225,2.9,2.9,69,0.00,,,0.00,WUHU215HW,2013-02-11 07:27:00,
2013-02-11 01:32:00,32.1,23.1,30.04,WSW,248,2.0,2.9,69,0.00,,,0.00,WUHU215HW,2013-02-11 07:32:00,
2013-02-11 01:33:00,32.1,23.1,30.04,WSW,248,2.0,2.9,69,0.00,,,0.00,WUHU215HW,2013-02-11 07:33:00,
2013-02-11 01:38:00,32.0,23.5,30.04,WSW,248,2.0,2.9,70,0.00,,,0.00,WUHU215HW,2013-02-11 07:38:00,
2013-02-11 01:39:00,32.0,23.5,30.04,WSW,248,2.0,2.9,70,0.00,,,0.00,WUHU215HW,2013-02-11 07:39:00,
2013-02-11 01:43:00,32.0,23.3,30.04,NNE,23,7.3,7.3,70,0.00,,,0.00,WUHU215HW,2013-02-11 07:43:00,
2013-02-11 01:44:00,32.1,23.5,30.04,NNE,21,4.9,7.3,70,0.00,,,0.00,WUHU215HW,2013-02-11 07:44:00,
2013-02-11 01:49:00,32.0,23.3,30.04,SSW,203,3.5,7.3,70,0.00,,,0.00,WUHU215HW,2013-02-11 07:49:00,
2013-02-11 01:50:00,32.0,23.3,30.04,SSW,203,3.5,7.3,70,0.00,,,0.00,WUHU215HW,2013-02-11 07:50:00,
2013-02-11 01:54:00,32.0,23.3,30.04,North,0,6.9,6.9,70,0.00,,,0.00,WUHU215HW,2013-02-11 07:54:00,
2013-02-11 01:55:00,31.8,23.1,30.04,NW,315,1.5,6.9,70,0.00,,,0.00,WUHU215HW,2013-02-11 07:55:00,
2013-02-11 01:57:00,31.8,23.1,30.04,NW,315,1.5,6.9,70,0.00,,,0.00,WUHU215HW,2013-02-11 07:57:00,
2013-02-11 01:58:00,31.8,23.1,30.04,NW,315,1.5,6.9,70,0.00,,,0.00,WUHU215HW,2013-02-11 07:58:00,
2013-02-11 02:01:00,31.8,23.1,30.04,SSE,158,0.0,6.9,70,0.00,,,0.00,WUHU215HW,2013-02-11 08:01:00,
2013-02-11 02:03:00,31.8,23.1,30.04,West,270,3.1,3.1,70,0.00,,,0.00,WUHU215HW,2013-02-11 08:03:00,
2013-02-11 02:05:00,31.8,23.1,30.04,West,270,3.1,3.1,70,0.00,,,0.00,WUHU215HW,2013-02-11 08:05:00,
2013-02-11 02:08:00,31.6,23.3,30.04,NNW,343,4.4,7.1,71,0.00,,,0.00,WUHU215HW,2013-02-11 08:08:00,
2013-02-11 02:11:00,31.6,23.3,30.04,NNE,23,3.3,7.1,71,0.00,,,0.00,WUHU215HW,2013-02-11 08:11:00,
2013-02-11 02:13:00,31.6,23.3,30.04,NNE,23,3.3,7.1,71,0.00,,,0.00,WUHU215HW,2013-02-11 08:13:00,
2013-02-11 02:14:00,31.6,23.3,30.04,NNE,24,2.4,7.1,71,0.00,,,0.00,WUHU215HW,2013-02-11 08:14:00,
2013-02-11 02:17:00,31.6,23.3,30.04,NNW,338,4.2,7.1,71,0.00,,,0.00,WUHU215HW,2013-02-11 08:17:00,
2013-02-11 02:20:00,31.6,23.3,30.04,WSW,248,2.6,4.2,71,0.00,,,0.00,WUHU215HW,2013-02-11 08:20:00,
2013-02-11 02:21:00,31.6,23.3,30.04,NNW,338,4.0,4.2,71,0.00,,,0.00,WUHU215HW,2013-02-11 08:21:00,
2013-02-11 02:22:00,31.6,23.3,30.04,NNW,338,4.0,4.2,71,0.00,,,0.00,WUHU215HW,2013-02-11 08:22:00,
2013-02-11 02:24:00,31.6,23.3,30.04,WSW,248,3.1,4.2,71,0.00,,,0.00,WUHU215HW,2013-02-11 08:24:00,
2013-02-11 02:27:00,31.6,23.1,30.04,NW,315,9.1,9.1,71,0.00,,,0.00,WUHU215HW,2013-02-11 08:27:00,
2013-02-11 02:29:00,31.4,23.1,30.04,NNW,331,6.3,9.1,71,0.00,,,0.00,WUHU215HW,2013-02-11 08:29:00,
2013-02-11 02:32:00,31.4,23.1,30.04,NE,38,4.9,9.1,71,0.00,,,0.00,WUHU215HW,2013-02-11 08:32:00,
2013-02-11 02:34:00,31.4,23.1,30.04,West,270,3.3,9.1,71,0.00,,,0.00,WUHU215HW,2013-02-11 08:34:00,
2013-02-11 02:36:00,31.6,23.6,30.04,West,267,2.3,9.1,72,0.00,,,0.00,WUHU215HW,2013-02-11 08:36:00,
2013-02-11 02:40:00,31.4,23.1,30.04,WNW,293,1.1,5.1,71,0.00,,,0.00,WUHU215HW,2013-02-11 08:40:00,
2013-02-11 02:41:00,31.4,23.1,30.04,WNW,293,1.1,5.1,71,0.00,,,0.00,WUHU215HW,2013-02-11 08:41:00,
2013-02-11 02:43:00,31.4,23.1,30.04,West,270,5.5,5.5,71,0.00,,,0.00,WUHU215HW,2013-02-11 08:43:00,
2013-02-11 02:47:00,31.6,23.6,30.04,NNW,338,6.0,6.0,72,0.00,,,0.00,WUHU215HW,2013-02-11 08:47:00,
2013-02-11 02:48:00,31.6,23.6,30.04,NNW,338,6.0,6.0,72,0.00,,,0.00,WUHU215HW,2013-02-11 08:48:00,
2013-02-11 02:49:00,31.6,23.6,30.04,NNW,338,6.0,6.0,72,0.00,,,0.00,WUHU215HW,2013-02-11 08:49:00,
2013-02-11 02:52:00,31.6,23.6,30.04,NNW,338,0.0,6.0,72,0.00,,,0.00,WUHU215HW,2013-02-11 08:52:00,
2013-02-11 02:53:00,31.6,23.6,30.04,NNW,338,0.0,6.0,72,0.00,,,0.00,WUHU215HW,2013-02-11 08:53:00,
2013-02-11 02:55:00,31.4,23.6,30.04,NNW,338,0.0,6.0,72,0.00,,,0.00,WUHU215HW,2013-02-11 08:55:00,
2013-02-11 02:57:00,31.2,23.2,30.04,NW,315,0.0,6.0,72,0.00,,,0.00,WUHU215HW,2013-02-11 08:57:00,
2013-02-11 02:58:00,31.2,23.2,30.04,NW,315,0.0,6.0,72,0.00,,,0.00,WUHU215HW,2013-02-11 08:58:00,
2013-02-11 02:59:00,31.2,23.2,30.04,NW,315,0.0,0.0,72,0.00,,,0.00,WUHU215HW,2013-02-11 08:59:00,
2013-02-11 03:03:00,31.2,23.2,30.04,North,0,3.1,3.1,72,0.00,,,0.00,WUHU215HW,2013-02-11 09:03:00,
2013-02-11 03:04:00,31.2,23.2,30.04,North,0,3.1,3.1,72,0.00,,,0.00,WUHU215HW,2013-02-11 09:04:00,
2013-02-11 03:05:00,31.2,23.2,30.04,North,0,3.1,3.1,72,0.00,,,0.00,WUHU215HW,2013-02-11 09:05:00,
2013-02-11 03:09:00,31.6,23.9,30.04,West,270,2.0,3.1,73,0.00,,,0.00,WUHU215HW,2013-02-11 09:09:00,
2013-02-11 03:11:00,31.6,23.9,30.04,West,270,2.0,3.1,73,0.00,,,0.00,WUHU215HW,2013-02-11 09:11:00,
2013-02-11 03:12:00,31.6,23.9,30.04,NNW,338,0.0,3.1,73,0.00,,,0.00,WUHU215HW,2013-02-11 09:12:00,
2013-02-11 03:14:00,31.6,23.9,30.04,NNW,338,0.0,2.0,73,0.00,,,0.00,WUHU215HW,2013-02-11 09:14:00,
2013-02-11 03:16:00,31.6,23.9,30.04,NW,315,0.0,2.0,73,0.00,,,0.00,WUHU215HW,2013-02-11 09:16:00,
2013-02-11 03:20:00,31.6,23.9,30.04,SW,225,0.0,0.0,73,0.00,,,0.00,WUHU215HW,2013-02-11 09:20:00,
2013-02-11 03:21:00,31.6,23.9,30.04,WNW,293,2.2,2.2,73,0.00,,,0.00,WUHU215HW,2013-02-11 09:21:00,
2013-02-11 03:24:00,31.8,24.1,30.04,WNW,293,2.2,2.2,73,0.00,,,0.00,WUHU215HW,2013-02-11 09:24:00,
2013-02-11 03:28:00,31.8,24.1,30.04,SW,225,0.4,2.2,73,0.00,,,0.00,WUHU215HW,2013-02-11 09:28:00,
2013-02-11 03:29:00,31.8,24.1,30.04,SW,225,0.4,2.2,73,0.00,,,0.00,WUHU215HW,2013-02-11 09:29:00,
2013-02-11 03:31:00,31.8,24.1,30.04,SW,225,0.4,2.2,73,0.00,,,0.00,WUHU215HW,2013-02-11 09:31:00,
2013-02-11 03:33:00,31.8,24.1,30.04,SSE,158,0.0,0.4,73,0.00,,,0.00,WUHU215HW,2013-02-11 09:33:00,
2013-02-11 03:36:00,31.8,24.1,30.04,WSW,248,0.0,0.4,73,0.00,,,0.00,WUHU215HW,2013-02-11 09:36:00,
2013-02-11 03:38:00,31.8,24.1,30.04,SSE,158,0.0,0.4,73,0.00,,,0.00,WUHU215HW,2013-02-11 09:38:00,
2013-02-11 03:40:00,31.8,24.1,30.04,SSE,158,0.0,0.4,73,0.00,,,0.00,WUHU215HW,2013-02-11 09:40:00,
2013-02-11 03:42:00,31.8,24.1,30.04,SSE,158,0.0,0.0,73,0.00,,,0.00,WUHU215HW,2013-02-11 09:42:00,
2013-02-11 03:43:00,32.0,24.1,30.04,SSE,158,0.0,0.0,72,0.00,,,0.00,WUHU215HW,2013-02-11 09:43:00,
2013-02-11 03:47:00,32.1,24.1,30.04,WSW,254,2.1,5.5,72,0.00,,,0.00,WUHU215HW,2013-02-11 09:47:00,
2013-02-11 03:49:00,32.1,24.1,30.04,NW,315,1.5,5.5,72,0.00,,,0.00,WUHU215HW,2013-02-11 09:49:00,
2013-02-11 03:52:00,32.1,24.1,30.04,SSE,158,2.4,5.5,72,0.00,,,0.00,WUHU215HW,2013-02-11 09:52:00,
2013-02-11 03:55:00,32.1,24.1,30.04,SSW,192,1.7,5.5,72,0.00,,,0.00,WUHU215HW,2013-02-11 09:55:00,
2013-02-11 03:57:00,32.1,24.1,30.04,SSE,158,1.3,2.4,72,0.00,,,0.00,WUHU215HW,2013-02-11 09:57:00,
2013-02-11 04:02:00,32.1,24.4,30.04,SW,225,0.0,2.4,73,0.00,,,0.00,WUHU215HW,2013-02-11 10:02:00,
2013-02-11 04:03:00,32.1,24.4,30.04,SW,225,0.0,2.0,73,0.00,,,0.00,WUHU215HW,2013-02-11 10:03:00,
2013-02-11 04:06:00,32.0,24.4,30.04,West,270,0.4,1.3,73,0.00,,,0.00,WUHU215HW,2013-02-11 10:06:00,
2013-02-11 04:09:00,32.0,24.3,30.04,South,180,0.0,0.4,73,0.00,,,0.00,WUHU215HW,2013-02-11 10:09:00,
2013-02-11 04:11:00,32.0,24.3,30.04,South,180,0.0,0.4,73,0.00,,,0.00,WUHU215HW,2013-02-11 10:11:00,
2013-02-11 04:14:00,31.8,24.1,30.04,SSE,158,3.8,3.8,73,0.00,,,0.00,WUHU215HW,2013-02-11 10:14:00,
2013-02-11 04:20:00,31.8,24.1,30.04,SW,225,0.0,3.8,73,0.00,,,0.00,WUHU215HW,2013-02-11 10:20:00,
2013-02-11 04:21:00,31.8,24.1,30.04,NW,315,0.0,3.8,73,0.00,,,0.00,WUHU215HW,2013-02-11 10:21:00,
2013-02-11 04:23:00,31.8,24.1,30.04,WNW,293,0.0,3.8,73,0.00,,,0.00,WUHU215HW,2013-02-11 10:23:00,
2013-02-11 04:26:00,31.8,24.1,30.04,WNW,293,0.0,0.0,73,0.00,,,0.00,WUHU215HW,2013-02-11 10:26:00,
2013-02-11 04:30:00,31.8,24.1,30.04,West,270,0.0,0.0,73,0.00,,,0.00,WUHU215HW,2013-02-11 10:30:00,
2013-02-11 04:31:00,31.8,24.1,30.04,WNW,293,0.0,0.0,73,0.00,,,0.00,WUHU215HW,2013-02-11 10:31:00,
2013-02-11 04:34:00,31.8,24.1,30.04,WSW,248,1.1,1.1,73,0.00,,,0.00,WUHU215HW,2013-02-11 10:34:00,
2013-02-11 04:37:00,31.8,24.1,30.04,WSW,248,1.1,1.1,73,0.00,,,0.00,WUHU215HW,2013-02-11 10:37:00,
2013-02-11 04:38:00,31.8,24.1,30.04,North,0,0.6,1.1,73,0.00,,,0.00,WUHU215HW,2013-02-11 10:38:00,
2013-02-11 04:40:00,31.6,24.1,30.04,North,0,0.6,1.1,73,0.00,,,0.00,WUHU215HW,2013-02-11 10:40:00,
2013-02-11 04:42:00,31.6,23.9,30.04,WNW,293,0.0,1.1,73,0.00,,,0.00,WUHU215HW,2013-02-11 10:42:00,
2013-02-11 04:47:00,31.2,23.2,30.04,NNW,338,0.0,0.6,72,0.00,,,0.00,WUHU215HW,2013-02-11 10:47:00,
2013-02-11 04:48:00,31.2,23.2,30.04,WNW,293,0.0,0.6,72,0.00,,,0.00,WUHU215HW,2013-02-11 10:48:00,
2013-02-11 04:53:00,30.9,22.9,30.04,West,270,6.0,6.0,72,0.00,,,0.00,WUHU215HW,2013-02-11 10:53:00,
2013-02-11 04:55:00,30.9,22.9,30.04,WNW,293,6.2,6.2,72,0.00,,,0.00,WUHU215HW,2013-02-11 10:55:00,
2013-02-11 04:58:00,30.7,22.9,30.04,WNW,293,6.2,6.2,72,0.00,,,0.00,WUHU215HW,2013-02-11 10:58:00,
2013-02-11 05:00:00,30.7,22.7,30.04,West,270,0.0,6.2,72,0.00,,,0.00,WUHU215HW,2013-02-11 11:00:00,
2013-02-11 05:03:00,30.7,22.7,30.04,West,270,1.1,6.2,72,0.00,,,0.00,WUHU215HW,2013-02-11 11:03:00,
2013-02-11 05:08:00,30.5,22.8,30.04,ENE,68,0.6,1.1,73,0.00,,,0.00,WUHU215HW,2013-02-11 11:08:00,
2013-02-11 05:09:00,30.5,22.8,30.04,ENE,68,0.6,1.1,73,0.00,,,0.00,WUHU215HW,2013-02-11 11:09:00,
2013-02-11 05:14:00,30.3,22.7,30.04,SW,225,0.0,0.6,73,0.00,,,0.00,WUHU215HW,2013-02-11 11:14:00,
2013-02-11 05:19:00,30.5,22.8,30.04,NW,315,2.6,2.6,73,0.00,,,0.00,WUHU215HW,2013-02-11 11:19:00,
2013-02-11 05:20:00,30.5,22.8,30.04,NW,315,2.6,2.6,73,0.00,,,0.00,WUHU215HW,2013-02-11 11:20:00,
2013-02-11 05:25:00,30.5,23.2,30.04,SSW,203,0.0,2.6,74,0.00,,,0.00,WUHU215HW,2013-02-11 11:25:00,
2013-02-11 05:26:00,30.5,23.2,30.04,SSW,203,0.0,2.6,74,0.00,,,0.00,WUHU215HW,2013-02-11 11:26:00,
2013-02-11 05:29:00,30.5,23.2,30.04,SSW,203,1.7,2.6,74,0.00,,,0.00,WUHU215HW,2013-02-11 11:29:00,
2013-02-11 05:30:00,30.5,23.2,30.04,SSW,203,1.7,2.6,74,0.00,,,0.00,WUHU215HW,2013-02-11 11:30:00,
2013-02-11 05:31:00,30.5,23.2,30.04,NW,315,4.9,4.9,74,0.00,,,0.00,WUHU215HW,2013-02-11 11:31:00,
2013-02-11 05:37:00,30.5,23.2,30.04,West,270,0.0,4.9,74,0.00,,,0.00,WUHU215HW,2013-02-11 11:37:00,
2013-02-11 05:39:00,30.5,23.2,30.04,SW,225,0.0,4.9,74,0.00,,,0.00,WUHU215HW,2013-02-11 11:39:00,
2013-02-11 05:43:00,30.5,23.2,30.04,SW,225,4.9,4.9,74,0.00,,,0.00,WUHU215HW,2013-02-11 11:43:00,
2013-02-11 05:44:00,30.7,23.0,30.04,SW,225,4.9,4.9,73,0.00,,,0.00,WUHU215HW,2013-02-11 11:44:00,
2013-02-11 05:45:00,30.7,23.0,30.04,SW,225,4.9,4.9,73,0.00,,,0.00,WUHU215HW,2013-02-11 11:45:00,
2013-02-11 05:46:00,30.7,23.0,30.04,SW,225,4.9,4.9,73,0.00,,,0.00,WUHU215HW,2013-02-11 11:46:00,
2013-02-11 05:49:00,30.7,23.0,30.04,SW,232,0.8,4.9,73,0.00,,,0.00,WUHU215HW,2013-02-11 11:49:00,
2013-02-11 05:51:00,30.7,23.0,30.04,SSE,158,0.6,4.9,73,0.00,,,0.00,WUHU215HW,2013-02-11 11:51:00,
2013-02-11 05:52:00,30.7,23.0,30.04,SSE,158,0.6,4.9,73,0.00,,,0.00,WUHU215HW,2013-02-11 11:52:00,
2013-02-11 05:56:00,30.7,23.0,30.04,WNW,293,0.2,1.1,73,0.00,,,0.00,WUHU215HW,2013-02-11 11:56:00,
2013-02-11 05:58:00,30.7,23.0,30.04,SSE,158,6.0,6.0,73,0.00,,,0.00,WUHU215HW,2013-02-11 11:58:00,
2013-02-11 05:59:00,30.7,23.0,30.04,SSE,158,6.0,6.0,73,0.00,,,0.00,WUHU215HW,2013-02-11 11:59:00,
2013-02-11 06:01:00,30.7,23.0,30.04,NNE,23,2.6,6.0,73,0.00,,,0.00,WUHU215HW,2013-02-11 12:01:00,
2013-02-11 06:02:00,30.7,23.0,30.04,NNE,23,2.6,6.0,73,0.00,,,0.00,WUHU215HW,2013-02-11 12:02:00,
2013-02-11 06:06:00,30.7,23.0,30.04,East,90,2.0,6.0,73,0.00,,,0.00,WUHU215HW,2013-02-11 12:06:00,
2013-02-11 06:07:00,30.7,23.0,30.04,East,90,2.0,6.0,73,0.00,,,0.00,WUHU215HW,2013-02-11 12:07:00,
2013-02-11 06:08:00,30.7,23.0,30.04,NNE,23,7.1,7.1,72,0.00,,,0.00,WUHU215HW,2013-02-11 12:08:00,
2013-02-11 06:09:00,30.7,23.0,30.04,NNE,23,7.1,7.1,72,0.00,,,0.00,WUHU215HW,2013-02-11 12:09:00,
2013-02-11 06:12:00,30.7,22.7,30.04,North,8,5.5,7.1,72,0.00,,,0.00,WUHU215HW,2013-02-11 12:12:00,
2013-02-11 06:17:00,30.7,22.7,30.04,NNW,338,0.0,7.1,72,0.00,,,0.00,WUHU215HW,2013-02-11 12:17:00,
2013-02-11 06:18:00,30.7,22.7,30.04,NNW,338,0.0,7.1,72,0.00,,,0.00,WUHU215HW,2013-02-11 12:18:00,
2013-02-11 06:19:00,30.7,22.7,30.04,NNW,338,0.0,7.1,72,0.00,,,0.00,WUHU215HW,2013-02-11 12:19:00,
2013-02-11 06:24:00,30.5,22.7,30.04,NNW,338,0.6,4.4,72,0.00,,,0.00,WUHU215HW,2013-02-11 12:24:00,
2013-02-11 06:25:00,30.5,22.5,30.04,NW,315,0.0,0.6,72,0.00,,,0.00,WUHU215HW,2013-02-11 12:25:00,
2013-02-11 06:30:00,30.3,22.5,30.04,WSW,248,4.4,4.4,72,0.00,,,0.00,WUHU215HW,2013-02-11 12:30:00,
2013-02-11 06:31:00,30.3,22.5,30.04,WSW,248,4.4,4.4,73,0.00,,,0.00,WUHU215HW,2013-02-11 12:31:00,
2013-02-11 06:32:00,30.2,22.5,30.04,WSW,248,4.4,4.4,73,0.00,,,0.00,WUHU215HW,2013-02-11 12:32:00,
2013-02-11 06:35:00,30.0,22.3,30.04,WNW,293,0.0,4.4,73,0.00,,,0.00,WUHU215HW,2013-02-11 12:35:00,
2013-02-11 06:37:00,30.0,22.3,30.04,NW,315,2.2,4.4,73,0.00,,,0.00,WUHU215HW,2013-02-11 12:37:00,
2013-02-11 06:40:00,29.8,22.3,30.04,West,270,3.3,4.4,73,0.00,,,0.00,WUHU215HW,2013-02-11 12:40:00,
2013-02-11 06:41:00,29.8,22.3,30.04,West,270,3.3,4.4,73,0.00,,,0.00,WUHU215HW,2013-02-11 12:41:00,
2013-02-11 06:46:00,29.8,22.5,30.04,West,270,2.9,3.3,74,0.00,,,0.00,WUHU215HW,2013-02-11 12:46:00,
2013-02-11 06:51:00,29.8,22.5,30.04,WSW,248,0.0,3.3,74,0.00,,,0.00,WUHU215HW,2013-02-11 12:51:00,
2013-02-11 06:52:00,29.8,22.5,30.04,WSW,248,0.0,3.3,74,0.00,,,0.00,WUHU215HW,2013-02-11 12:52:00,
2013-02-11 06:54:00,29.8,22.5,30.04,WSW,248,0.0,2.9,74,0.00,,,0.00,WUHU215HW,2013-02-11 12:54:00,
2013-02-11 06:59:00,29.8,22.5,30.04,WNW,293,0.0,0.0,74,0.00,,,0.00,WUHU215HW,2013-02-11 12:59:00,
2013-02-11 07:00:00,29.8,22.5,30.04,WNW,293,0.0,0.0,74,0.00,,,0.00,WUHU215HW,2013-02-11 13:00:00,
2013-02-11 07:04:00,29.8,22.5,30.04,NW,315,0.0,0.0,74,0.00,,,0.00,WUHU215HW,2013-02-11 13:04:00,
2013-02-11 07:05:00,29.8,22.5,30.04,NW,315,0.0,0.0,74,0.00,,,0.00,WUHU215HW,2013-02-11 13:05:00,
2013-02-11 07:09:00,29.8,22.5,30.04,WNW,293,0.0,0.0,74,0.00,,,0.00,WUHU215HW,2013-02-11 13:09:00,
2013-02-11 07:14:00,29.8,22.5,30.04,NW,315,0.0,0.0,74,0.00,,,0.00,WUHU215HW,2013-02-11 13:14:00,
2013-02-11 07:16:00,29.6,22.5,30.04,West,270,0.0,0.0,74,0.00,,,0.00,WUHU215HW,2013-02-11 13:16:00,
2013-02-11 07:20:00,29.6,22.3,30.04,WSW,248,0.0,0.0,74,0.00,,,0.00,WUHU215HW,2013-02-11 13:20:00,
2013-02-11 07:23:00,29.4,22.1,30.04,West,270,0.0,0.0,74,0.00,,,0.00,WUHU215HW,2013-02-11 13:23:00,
2013-02-11 07:25:00,29.3,22.1,30.04,West,270,0.0,0.0,74,0.00,,,0.00,WUHU215HW,2013-02-11 13:25:00,
2013-02-11 07:26:00,29.3,22.1,30.04,West,270,0.0,0.0,74,0.00,,,0.00,WUHU215HW,2013-02-11 13:26:00,
2013-02-11 07:29:00,29.3,22.1,30.04,North,0,0.0,0.0,74,0.00,,,0.00,WUHU215HW,2013-02-11 13:29:00,
2013-02-11 07:32:00,29.3,22.1,30.04,West,270,1.3,1.3,74,0.00,,,0.00,WUHU215HW,2013-02-11 13:32:00,
2013-02-11 07:37:00,29.1,21.8,30.04,West,270,1.3,1.3,74,0.00,,,0.00,WUHU215HW,2013-02-11 13:37:00,
2013-02-11 07:40:00,29.1,21.8,30.04,West,270,0.0,1.3,74,0.00,,,0.00,WUHU215HW,2013-02-11 13:40:00,
2013-02-11 07:42:00,29.1,21.8,30.04,North,0,0.8,1.3,74,0.00,,,0.00,WUHU215HW,2013-02-11 13:42:00,
2013-02-11 07:43:00,29.1,21.8,30.04,North,0,0.8,1.3,74,0.00,,,0.00,WUHU215HW,2013-02-11 13:43:00,
2013-02-11 07:44:00,29.1,21.8,30.04,North,0,0.8,1.3,74,0.00,,,0.00,WUHU215HW,2013-02-11 13:44:00,
2013-02-11 07:46:00,29.1,21.8,30.04,North,0,0.8,0.8,74,0.00,,,0.00,WUHU215HW,2013-02-11 13:46:00,
2013-02-11 07:47:00,29.1,21.8,30.04,North,0,0.8,0.8,74,0.00,,,0.00,WUHU215HW,2013-02-11 13:47:00,
2013-02-11 07:50:00,29.1,21.8,30.04,ESE,113,0.4,0.8,74,0.00,,,0.00,WUHU215HW,2013-02-11 13:50:00,
2013-02-11 07:51:00,28.9,21.6,30.04,WNW,293,3.8,3.8,74,0.00,,,0.00,WUHU215HW,2013-02-11 13:51:00,
2013-02-11 07:52:00,28.9,21.6,30.04,WNW,293,3.8,3.8,74,0.00,,,0.00,WUHU215HW,2013-02-11 13:52:00,
2013-02-11 07:57:00,28.9,21.6,30.04,WSW,248,0.0,3.8,74,0.00,,,0.00,WUHU215HW,2013-02-11 13:57:00,
2013-02-11 07:59:00,28.7,21.4,30.04,WSW,248,0.0,3.8,74,0.00,,,0.00,WUHU215HW,2013-02-11 13:59:00,
2013-02-11 08:00:00,28.7,21.4,30.04,WSW,248,0.0,3.8,74,0.00,,,0.00,WUHU215HW,2013-02-11 14:00:00,
2013-02-11 08:02:00,28.7,21.4,30.04,East,90,0.0,3.8,74,0.00,,,0.00,WUHU215HW,2013-02-11 14:02:00,
2013-02-11 08:04:00,28.9,21.4,30.04,East,90,0.0,1.5,74,0.00,,,0.00,WUHU215HW,2013-02-11 14:04:00,
2013-02-11 08:06:00,28.9,21.4,30.04,East,90,0.0,0.0,74,0.00,,,0.00,WUHU215HW,2013-02-11 14:06:00,
2013-02-11 08:11:00,28.9,21.6,30.04,WSW,248,0.0,0.0,74,0.00,,,0.00,WUHU215HW,2013-02-11 14:11:00,
2013-02-11 08:12:00,28.9,21.6,30.04,WNW,293,0.0,0.0,74,0.00,,,0.00,WUHU215HW,2013-02-11 14:12:00,
2013-02-11 08:14:00,28.9,21.6,30.04,WNW,293,0.0,0.0,74,0.00,,,0.00,WUHU215HW,2013-02-11 14:14:00,
2013-02-11 08:17:00,28.9,21.6,30.04,WNW,293,0.0,0.0,74,0.00,,,0.00,WUHU215HW,2013-02-11 14:17:00,
2013-02-11 08:19:00,29.1,21.5,30.04,West,270,0.0,0.0,73,0.00,,,0.00,WUHU215HW,2013-02-11 14:19:00,
2013-02-11 08:21:00,29.1,21.8,30.04,West,270,0.0,0.0,73,0.00,,,0.00,WUHU215HW,2013-02-11 14:21:00,
2013-02-11 08:25:00,29.3,21.5,30.04,West,270,1.1,1.1,73,0.00,,,0.00,WUHU215HW,2013-02-11 14:25:00,
2013-02-11 08:27:00,29.3,21.5,30.04,WNW,293,3.3,3.3,73,0.00,,,0.00,WUHU215HW,2013-02-11 14:27:00,
2013-02-11 08:30:00,29.4,21.5,30.04,WNW,293,3.3,3.3,73,0.00,,,0.00,WUHU215HW,2013-02-11 14:30:00,
2013-02-11 08:31:00,29.4,21.5,30.04,ENE,68,3.1,3.3,72,0.00,,,0.00,WUHU215HW,2013-02-11 14:31:00,
2013-02-11 08:32:00,29.4,21.5,30.04,ENE,68,3.1,3.3,72,0.00,,,0.00,WUHU215HW,2013-02-11 14:32:00,
2013-02-11 08:36:00,29.4,21.5,30.04,NW,315,0.0,3.3,72,0.00,,,0.00,WUHU215HW,2013-02-11 14:36:00,
2013-02-11 08:37:00,29.4,21.5,30.04,NW,315,0.0,3.3,72,0.00,,,0.00,WUHU215HW,2013-02-11 14:37:00,
2013-02-11 08:39:00,29.4,21.5,30.04,South,180,0.6,3.1,72,0.00,,,0.00,WUHU215HW,2013-02-11 14:39:00,
2013-02-11 08:41:00,29.4,21.5,30.04,South,180,0.6,3.1,72,0.00,,,0.00,WUHU215HW,2013-02-11 14:41:00,
2013-02-11 08:42:00,29.3,21.3,30.04,NNW,338,5.8,5.8,72,0.00,,,0.00,WUHU215HW,2013-02-11 14:42:00,
2013-02-11 08:43:00,29.3,21.3,30.04,NNW,338,5.8,5.8,72,0.00,,,0.00,WUHU215HW,2013-02-11 14:43:00,
2013-02-11 08:44:00,29.3,21.3,30.04,NNW,338,5.8,5.8,72,0.00,,,0.00,WUHU215HW,2013-02-11 14:44:00,
2013-02-11 08:46:00,29.4,21.5,30.04,SSW,203,2.2,5.8,72,0.00,,,0.00,WUHU215HW,2013-02-11 14:46:00,
2013-02-11 08:48:00,29.4,21.5,30.04,SSW,203,2.2,5.8,72,0.00,,,0.00,WUHU215HW,2013-02-11 14:48:00,
2013-02-11 08:49:00,29.3,21.3,30.04,SSW,203,2.2,5.8,72,0.00,,,0.00,WUHU215HW,2013-02-11 14:49:00,
2013-02-11 08:52:00,29.4,21.5,30.04,SSW,203,0.0,5.8,72,0.00,,,0.00,WUHU215HW,2013-02-11 14:52:00,
2013-02-11 08:53:00,29.4,21.5,30.04,SSW,203,0.0,5.8,72,0.00,,,0.00,WUHU215HW,2013-02-11 14:53:00,
2013-02-11 08:55:00,29.4,21.5,30.04,WNW,293,0.0,2.2,72,0.00,,,0.00,WUHU215HW,2013-02-11 14:55:00,
2013-02-11 08:59:00,29.6,21.7,30.04,SSW,203,1.1,1.1,72,0.00,,,0.00,WUHU215HW,2013-02-11 14:59:00,
2013-02-11 09:00:00,29.6,21.7,30.04,SSW,203,1.1,1.1,72,0.00,,,0.00,WUHU215HW,2013-02-11 15:00:00,
2013-02-11 09:01:00,29.5,21.7,30.04,SSW,203,1.1,1.1,72,0.00,,,0.00,WUHU215HW,2013-02-11 15:01:00,
2013-02-11 09:06:00,29.5,21.3,30.04,NW,315,0.0,1.1,71,0.00,,,0.00,WUHU215HW,2013-02-11 15:06:00,
2013-02-11 09:07:00,29.4,21.3,30.04,NW,315,0.0,1.1,71,0.00,,,0.00,WUHU215HW,2013-02-11 15:07:00,
2013-02-11 09:08:00,29.6,21.4,30.04,NNE,23,5.8,5.8,71,0.00,,,0.00,WUHU215HW,2013-02-11 15:08:00,
2013-02-11 09:12:00,29.4,21.2,30.04,WNW,293,3.1,5.8,71,0.00,,,0.00,WUHU215HW,2013-02-11 15:12:00,
2013-02-11 09:15:00,29.4,21.2,30.04,West,270,0.2,5.8,71,0.00,,,0.00,WUHU215HW,2013-02-11 15:15:00,
2013-02-11 09:17:00,29.3,21.1,30.04,West,270,0.2,5.8,71,0.00,,,0.00,WUHU215HW,2013-02-11 15:17:00,
2013-02-11 09:21:00,29.2,21.0,30.04,WSW,248,0.4,0.4,71,0.00,,,0.00,WUHU215HW,2013-02-11 15:21:00,
2013-02-11 09:23:00,29.3,21.1,30.04,ESE,113,1.3,1.3,71,0.00,,,0.00,WUHU215HW,2013-02-11 15:23:00,
2013-02-11 09:24:00,29.3,21.1,30.04,ESE,113,1.3,1.3,71,0.00,,,0.00,WUHU215HW,2013-02-11 15:24:00,
2013-02-11 09:25:00,29.4,21.2,30.04,ESE,113,1.3,1.3,71,0.00,,,0.00,WUHU215HW,2013-02-11 15:25:00,
2013-02-11 09:28:00,29.3,21.1,30.04,SSW,203,6.4,6.4,71,0.00,,,0.00,WUHU215HW,2013-02-11 15:28:00,
2013-02-11 09:29:00,29.2,21.0,30.04,SSW,203,6.4,6.4,71,0.00,,,0.00,WUHU215HW,2013-02-11 15:29:00,
2013-02-11 09:30:00,29.2,21.0,30.04,SSW,203,6.4,6.4,71,0.00,,,0.00,WUHU215HW,2013-02-11 15:30:00,
2013-02-11 09:31:00,29.1,20.9,30.04,SSW,202,3.3,6.4,71,0.00,,,0.00,WUHU215HW,2013-02-11 15:31:00,
2013-02-11 09:35:00,28.9,20.4,30.04,South,180,0.2,6.4,70,0.00,,,0.00,WUHU215HW,2013-02-11 15:35:00,
2013-02-11 09:36:00,29.4,20.9,30.04,South,180,0.2,6.4,70,0.00,,,0.00,WUHU215HW,2013-02-11 15:36:00,
2013-02-11 09:41:00,29.5,20.7,30.04,SW,225,1.3,2.4,69,0.00,,,0.00,WUHU215HW,2013-02-11 15:41:00,
2013-02-11 09:42:00,29.5,20.6,30.04,SW,225,1.3,2.4,69,0.00,,,0.00,WUHU215HW,2013-02-11 15:42:00,
2013-02-11 09:44:00,29.6,20.7,30.04,ENE,68,0.0,2.4,69,0.00,,,0.00,WUHU215HW,2013-02-11 15:44:00,
2013-02-11 09:46:00,29.7,20.8,30.04,West,270,0.0,2.4,69,0.00,,,0.00,WUHU215HW,2013-02-11 15:46:00,
2013-02-11 09:47:00,29.6,20.8,30.04,West,270,0.0,2.4,69,0.00,,,0.00,WUHU215HW,2013-02-11 15:47:00,
2013-02-11 09:50:00,29.8,20.6,30.04,ESE,113,2.9,2.9,68,0.00,,,0.00,WUHU215HW,2013-02-11 15:50:00,
2013-02-11 09:51:00,29.7,20.5,30.04,ESE,113,2.9,2.9,68,0.00,,,0.00,WUHU215HW,2013-02-11 15:51:00,
2013-02-11 09:52:00,29.7,20.5,30.04,ESE,113,2.9,2.9,68,0.00,,,0.00,WUHU215HW,2013-02-11 15:52:00,
2013-02-11 09:53:00,30.0,20.8,30.04,ESE,113,2.9,2.9,68,0.00,,,0.00,WUHU215HW,2013-02-11 15:53:00,
2013-02-11 09:56:00,30.2,21.0,30.04,West,270,0.0,2.9,68,0.00,,,0.00,WUHU215HW,2013-02-11 15:56:00,
2013-02-11 09:58:00,30.5,21.3,30.04,South,180,0.0,2.9,68,0.00,,,0.00,WUHU215HW,2013-02-11 15:58:00,
2013-02-11 10:02:00,30.7,21.5,30.04,SSW,203,0.0,2.9,68,0.00,,,0.00,WUHU215HW,2013-02-11 16:02:00,
2013-02-11 10:04:00,31.3,22.1,30.04,WSW,248,0.0,0.0,68,0.00,,,0.00,WUHU215HW,2013-02-11 16:04:00,
2013-02-11 10:05:00,31.3,22.0,30.04,WSW,248,0.0,0.0,68,0.00,,,0.00,WUHU215HW,2013-02-11 16:05:00,
2013-02-11 10:09:00,31.3,21.3,30.04,North,0,5.5,5.5,66,0.00,,,0.00,WUHU215HW,2013-02-11 16:09:00,
2013-02-11 10:10:00,31.8,21.8,30.04,North,0,5.5,5.5,66,0.00,,,0.00,WUHU215HW,2013-02-11 16:10:00,
2013-02-11 10:11:00,31.7,21.7,30.04,North,0,5.5,5.5,66,0.00,,,0.00,WUHU215HW,2013-02-11 16:11:00,
2013-02-11 10:14:00,31.8,21.4,30.04,North,0,5.5,5.5,65,0.00,,,0.00,WUHU215HW,2013-02-11 16:14:00,
2013-02-11 10:15:00,31.7,21.4,30.04,North,0,5.5,5.5,65,0.00,,,0.00,WUHU215HW,2013-02-11 16:15:00,
2013-02-11 10:18:00,32.5,22.1,30.04,WSW,248,0.0,5.5,65,0.00,,,0.00,WUHU215HW,2013-02-11 16:18:00,
2013-02-11 10:19:00,32.5,22.1,30.04,WSW,248,0.0,5.5,65,0.00,,,0.00,WUHU215HW,2013-02-11 16:19:00,
2013-02-11 10:20:00,32.4,22.0,30.04,WSW,248,0.0,5.5,65,0.00,,,0.00,WUHU215HW,2013-02-11 16:20:00,
2013-02-11 10:24:00,33.2,22.4,30.04,WSW,248,0.0,0.0,64,0.00,,,0.00,WUHU215HW,2013-02-11 16:24:00,
2013-02-11 10:25:00,33.3,22.1,30.04,WSW,248,0.0,0.0,63,0.00,,,0.00,WUHU215HW,2013-02-11 16:25:00,
2013-02-11 10:29:00,33.6,22.1,30.04,North,0,3.3,3.3,62,0.00,,,0.00,WUHU215HW,2013-02-11 16:29:00,
2013-02-11 10:30:00,33.6,22.0,30.04,North,0,3.3,3.3,62,0.00,,,0.00,WUHU215HW,2013-02-11 16:30:00,
2013-02-11 10:31:00,33.8,21.8,30.04,North,0,3.3,3.3,61,0.00,,,0.00,WUHU215HW,2013-02-11 16:31:00,
2013-02-11 10:34:00,33.6,21.7,30.04,WSW,248,0.4,3.3,61,0.00,,,0.00,WUHU215HW,2013-02-11 16:34:00,
2013-02-11 10:36:00,33.8,21.8,30.04,West,270,0.0,3.3,61,0.00,,,0.00,WUHU215HW,2013-02-11 16:36:00,
2013-02-11 10:39:00,33.7,21.4,30.04,West,270,0.0,3.3,60,0.00,,,0.00,WUHU215HW,2013-02-11 16:39:00,
2013-02-11 10:41:00,33.7,21.3,30.04,West,270,0.0,3.3,60,0.00,,,0.00,WUHU215HW,2013-02-11 16:41:00,
2013-02-11 10:45:00,33.9,20.7,30.04,SSE,158,2.2,2.2,58,0.00,,,0.00,WUHU215HW,2013-02-11 16:45:00,
2013-02-11 10:47:00,33.9,21.1,30.04,SSE,158,2.2,2.2,59,0.00,,,0.00,WUHU215HW,2013-02-11 16:47:00,
2013-02-11 10:49:00,34.0,21.2,30.04,SSW,203,0.4,2.2,59,0.00,,,0.00,WUHU215HW,2013-02-11 16:49:00,
2013-02-11 10:52:00,34.1,20.9,30.04,SSW,203,0.4,2.2,58,0.00,,,0.00,WUHU215HW,2013-02-11 16:52:00,
2013-02-11 10:53:00,34.1,20.9,30.04,West,270,3.3,3.3,58,0.00,,,0.00,WUHU215HW,2013-02-11 16:53:00,
2013-02-11 10:58:00,34.4,21.1,30.04,WNW,293,0.0,3.3,58,0.00,,,0.00,WUHU215HW,2013-02-11 16:58:00,
2013-02-11 10:59:00,34.1,20.5,30.04,SSW,203,2.4,3.3,57,0.00,,,0.00,WUHU215HW,2013-02-11 16:59:00,
2013-02-11 11:03:00,34.4,20.8,30.04,NNW,338,3.1,3.3,57,0.00,,,0.00,WUHU215HW,2013-02-11 17:03:00,
2013-02-11 11:06:00,34.3,20.2,30.04,NNW,338,3.1,3.1,56,0.00,,,0.00,WUHU215HW,2013-02-11 17:06:00,
2013-02-11 11:09:00,34.2,20.2,30.04,North,0,0.0,3.1,56,0.00,,,0.00,WUHU215HW,2013-02-11 17:09:00,
2013-02-11 11:12:00,34.1,20.1,30.04,WNW,293,0.6,3.1,56,0.00,,,0.00,WUHU215HW,2013-02-11 17:12:00,
2013-02-11 11:15:00,34.0,19.6,30.04,WNW,293,0.6,3.1,55,0.00,,,0.00,WUHU215HW,2013-02-11 17:15:00,
2013-02-11 11:17:00,34.3,20.2,30.04,West,270,2.4,2.4,56,0.00,,,0.00,WUHU215HW,2013-02-11 17:17:00,
2013-02-11 11:21:00,34.8,20.7,30.04,WNW,293,1.1,2.4,56,0.00,,,0.00,WUHU215HW,2013-02-11 17:21:00,
2013-02-11 11:22:00,34.8,20.7,30.04,WNW,293,1.1,2.4,56,0.00,,,0.00,WUHU215HW,2013-02-11 17:22:00,
2013-02-11 11:26:00,34.7,19.7,30.04,NNE,23,4.6,4.6,54,0.00,,,0.00,WUHU215HW,2013-02-11 17:26:00,
2013-02-11 11:28:00,34.4,19.5,30.04,NNE,23,4.2,4.6,54,0.00,,,0.00,WUHU215HW,2013-02-11 17:28:00,
2013-02-11 11:31:00,34.3,19.8,30.04,NW,312,3.9,5.5,55,0.00,,,0.00,WUHU215HW,2013-02-11 17:31:00,
2013-02-11 11:33:00,34.3,19.8,30.04,West,270,0.8,5.5,55,0.00,,,0.00,WUHU215HW,2013-02-11 17:33:00,
2013-02-11 11:36:00,34.7,20.6,30.04,SW,225,4.0,5.5,56,0.00,,,0.00,WUHU215HW,2013-02-11 17:36:00,
2013-02-11 11:38:00,35.1,20.5,30.04,SW,225,4.0,5.5,55,0.00,,,0.00,WUHU215HW,2013-02-11 17:38:00,
2013-02-11 11:41:00,35.2,20.7,30.04,SSW,203,2.2,4.0,55,0.00,,,0.00,WUHU215HW,2013-02-11 17:41:00,
2013-02-11 11:44:00,35.2,20.6,30.04,SW,225,4.0,4.0,55,0.00,,,0.00,WUHU215HW,2013-02-11 17:44:00,
2013-02-11 11:47:00,35.1,20.1,30.04,SW,225,4.0,4.0,54,0.00,,,0.00,WUHU215HW,2013-02-11 17:47:00,
2013-02-11 11:50:00,36.9,21.8,30.04,SW,225,4.0,4.0,54,0.00,,,0.00,WUHU215HW,2013-02-11 17:50:00,
2013-02-11 11:52:00,36.8,21.7,30.04,SW,225,4.0,4.0,54,0.00,,,0.00,WUHU215HW,2013-02-11 17:52:00,
2013-02-11 11:55:00,36.4,20.4,30.04,SW,230,2.9,4.0,52,0.00,,,0.00,WUHU215HW,2013-02-11 17:55:00,
2013-02-11 11:58:00,35.8,19.4,30.04,West,270,1.5,4.0,51,0.00,,,0.00,WUHU215HW,2013-02-11 17:58:00,
2013-02-11 12:00:00,35.8,19.9,30.04,West,270,1.5,4.0,52,0.00,,,0.00,WUHU215HW,2013-02-11 18:00:00,
2013-02-11 12:03:00,35.8,19.8,30.04,West,270,1.5,4.0,52,0.00,,,0.00,WUHU215HW,2013-02-11 18:03:00,
2013-02-11 12:07:00,36.0,20.1,30.04,West,270,2.6,2.6,52,0.00,,,0.00,WUHU215HW,2013-02-11 18:07:00,
2013-02-11 12:08:00,36.0,20.1,30.04,West,270,2.6,2.6,52,0.00,,,0.00,WUHU215HW,2013-02-11 18:08:00,
2013-02-11 12:13:00,36.4,20.4,30.04,West,270,0.0,2.6,52,0.00,,,0.00,WUHU215HW,2013-02-11 18:13:00,
2013-02-11 12:15:00,36.4,20.4,30.04,West,270,0.0,2.6,52,0.00,,,0.00,WUHU215HW,2013-02-11 18:15:00,
2013-02-11 12:18:00,37.2,21.2,30.04,West,270,0.0,2.6,52,0.00,,,0.00,WUHU215HW,2013-02-11 18:18:00,
2013-02-11 12:22:00,37.4,21.4,30.04,West,270,0.0,0.0,52,0.00,,,0.00,WUHU215HW,2013-02-11 18:22:00,
2013-02-11 12:24:00,37.4,21.4,30.04,West,270,0.0,0.0,52,0.00,,,0.00,WUHU215HW,2013-02-11 18:24:00,
2013-02-11 12:27:00,37.4,21.4,30.04,West,270,0.0,0.0,52,0.00,,,0.00,WUHU215HW,2013-02-11 18:27:00,
2013-02-11 12:29:00,37.4,21.3,30.04,West,270,0.0,0.0,52,0.00,,,0.00,WUHU215HW,2013-02-11 18:29:00,
2013-02-11 12:33:00,38.5,22.4,30.04,West,270,0.0,0.0,52,0.00,,,0.00,WUHU215HW,2013-02-11 18:33:00,
2013-02-11 12:34:00,38.5,22.4,30.04,West,270,0.0,0.0,52,0.00,,,0.00,WUHU215HW,2013-02-11 18:34:00,
2013-02-11 12:38:00,38.5,22.4,30.04,West,270,0.0,0.0,52,0.00,,,0.00,WUHU215HW,2013-02-11 18:38:00,
2013-02-11 12:40:00,39.0,22.8,30.04,West,270,0.0,0.0,52,0.00,,,0.00,WUHU215HW,2013-02-11 18:40:00,
2013-02-11 12:43:00,39.0,22.8,30.04,West,270,0.0,0.0,52,0.00,,,0.00,WUHU215HW,2013-02-11 18:43:00,
2013-02-11 12:45:00,39.0,22.9,30.04,West,270,0.0,0.0,52,0.00,,,0.00,WUHU215HW,2013-02-11 18:45:00,
2013-02-11 12:48:00,39.0,21.4,30.04,West,270,0.0,0.0,49,0.00,,,0.00,WUHU215HW,2013-02-11 18:48:00,
2013-02-11 12:50:00,39.0,21.4,30.04,West,270,0.0,0.0,49,0.00,,,0.00,WUHU215HW,2013-02-11 18:50:00,
2013-02-11 12:53:00,38.9,21.3,30.04,WSW,248,0.0,0.0,49,0.00,,,0.00,WUHU215HW,2013-02-11 18:53:00,
2013-02-11 12:56:00,38.7,21.1,30.04,SSW,203,4.0,4.0,49,0.00,,,0.00,WUHU215HW,2013-02-11 18:56:00,
2013-02-11 12:59:00,38.9,21.3,30.04,WSW,248,1.1,4.0,49,0.00,,,0.00,WUHU215HW,2013-02-11 18:59:00,
2013-02-11 13:02:00,38.9,21.3,30.04,WSW,248,1.1,4.0,49,0.00,,,0.00,WUHU215HW,2013-02-11 19:02:00,
2013-02-11 13:04:00,39.2,21.5,30.04,South,180,0.0,4.0,49,0.00,,,0.00,WUHU215HW,2013-02-11 19:04:00,
2013-02-11 13:08:00,38.8,20.7,30.04,WNW,293,0.0,1.1,48,0.00,,,0.00,WUHU215HW,2013-02-11 19:08:00,
2013-02-11 13:10:00,38.7,20.6,30.04,West,270,0.2,1.1,48,0.00,,,0.00,WUHU215HW,2013-02-11 19:10:00,
2013-02-11 13:15:00,38.6,21.0,30.04,WSW,248,0.0,0.2,49,0.00,,,0.00,WUHU215HW,2013-02-11 19:15:00,
2013-02-11 13:19:00,39.0,21.4,30.04,SW,225,3.5,3.5,49,0.00,,,0.00,WUHU215HW,2013-02-11 19:19:00,
2013-02-11 13:21:00,39.2,21.6,30.04,NW,315,3.3,3.5,49,0.00,,,0.00,WUHU215HW,2013-02-11 19:21:00,
2013-02-11 13:26:00,39.0,20.9,30.04,NW,315,3.3,3.5,48,0.00,,,0.00,WUHU215HW,2013-02-11 19:26:00,
2013-02-11 13:27:00,38.8,21.2,30.04,NW,315,3.3,3.5,49,0.00,,,0.00,WUHU215HW,2013-02-11 19:27:00,
2013-02-11 13:31:00,39.1,21.5,30.04,SW,225,0.0,3.3,49,0.00,,,0.00,WUHU215HW,2013-02-11 19:31:00,
2013-02-11 13:36:00,38.8,20.7,30.04,North,0,8.0,8.0,48,0.00,,,0.00,WUHU215HW,2013-02-11 19:36:00,
2013-02-11 13:38:00,38.9,20.7,30.04,NNW,348,5.4,8.0,48,0.00,,,0.00,WUHU215HW,2013-02-11 19:38:00,
2013-02-11 13:43:00,39.0,21.4,30.04,WNW,293,0.0,8.0,49,0.00,,,0.00,WUHU215HW,2013-02-11 19:43:00,
2013-02-11 13:47:00,39.1,21.0,30.04,North,0,4.6,8.0,48,0.00,,,0.00,WUHU215HW,2013-02-11 19:47:00,
2013-02-11 13:49:00,39.1,21.0,30.04,North,0,4.6,4.6,48,0.00,,,0.00,WUHU215HW,2013-02-11 19:49:00,
2013-02-11 13:52:00,39.2,22.1,30.04,SW,218,2.3,4.6,50,0.00,,,0.00,WUHU215HW,2013-02-11 19:52:00,
2013-02-11 13:54:00,39.3,22.1,30.04,SSW,203,1.5,4.6,50,0.00,,,0.00,WUHU215HW,2013-02-11 19:54:00,
2013-02-11 13:58:00,39.9,22.7,30.04,West,270,0.0,3.1,50,0.00,,,0.00,WUHU215HW,2013-02-11 19:58:00,
2013-02-11 13:59:00,39.9,22.7,30.04,SW,225,4.2,4.2,50,0.00,,,0.00,WUHU215HW,2013-02-11 19:59:00,
2013-02-11 14:03:00,40.6,22.9,30.04,South,187,4.1,5.8,49,0.00,,,0.00,WUHU215HW,2013-02-11 20:03:00,
2013-02-11 14:04:00,40.7,22.9,30.04,SSW,204,2.6,5.8,49,0.00,,,0.00,WUHU215HW,2013-02-11 20:04:00,
2013-02-11 14:08:00,41.1,23.3,30.04,South,180,0.0,5.8,49,0.00,,,0.00,WUHU215HW,2013-02-11 20:08:00,
2013-02-11 14:09:00,41.1,23.4,30.04,SSW,203,3.1,5.8,49,0.00,,,0.00,WUHU215HW,2013-02-11 20:09:00,
2013-02-11 14:14:00,41.3,23.0,30.04,SW,230,3.0,3.8,48,0.00,,,0.00,WUHU215HW,2013-02-11 20:14:00,
2013-02-11 14:18:00,41.3,23.0,30.04,NW,315,0.6,3.8,48,0.00,,,0.00,WUHU215HW,2013-02-11 20:18:00,
2013-02-11 14:20:00,41.2,22.9,30.04,SW,225,0.0,3.8,48,0.00,,,0.00,WUHU215HW,2013-02-11 20:20:00,
2013-02-11 14:23:00,41.3,23.5,30.04,West,270,0.0,3.8,49,0.00,,,0.00,WUHU215HW,2013-02-11 20:23:00,
2013-02-11 14:28:00,41.5,23.2,30.04,SSW,203,4.4,4.4,48,0.00,,,0.00,WUHU215HW,2013-02-11 20:28:00,
2013-02-11 14:30:00,41.6,23.3,30.04,SW,225,10.7,10.7,48,0.00,,,0.00,WUHU215HW,2013-02-11 20:30:00,
2013-02-11 14:34:00,41.5,23.2,30.04,SSE,158,6.0,10.7,48,0.00,,,0.00,WUHU215HW,2013-02-11 20:34:00,
2013-02-11 14:35:00,41.6,23.3,30.04,SSE,153,5.0,10.7,48,0.00,,,0.00,WUHU215HW,2013-02-11 20:35:00,
2013-02-11 14:40:00,41.8,24.0,30.04,South,180,3.3,10.7,49,0.00,,,0.00,WUHU215HW,2013-02-11 20:40:00,
2013-02-11 14:41:00,41.8,24.0,30.04,South,180,3.3,6.0,49,0.00,,,0.00,WUHU215HW,2013-02-11 20:41:00,
2013-02-11 14:45:00,42.2,24.3,30.04,South,180,0.6,3.3,49,0.00,,,0.00,WUHU215HW,2013-02-11 20:45:00,
2013-02-11 14:46:00,42.2,23.9,30.04,South,180,0.6,3.3,48,0.00,,,0.00,WUHU215HW,2013-02-11 20:46:00,
2013-02-11 14:51:00,41.8,23.4,30.04,NNW,338,0.4,3.3,48,0.00,,,0.00,WUHU215HW,2013-02-11 20:51:00,
2013-02-11 14:52:00,41.8,23.5,30.04,WNW,293,3.1,3.1,48,0.00,,,0.00,WUHU215HW,2013-02-11 20:52:00,
2013-02-11 14:56:00,41.6,23.2,30.04,WNW,293,3.1,3.1,48,0.00,,,0.00,WUHU215HW,2013-02-11 20:56:00,
2013-02-11 14:59:00,41.3,23.0,30.04,West,270,0.0,3.1,48,0.00,,,0.00,WUHU215HW,2013-02-11 20:59:00,
2013-02-11 15:01:00,41.4,23.6,30.04,SSE,158,3.8,3.8,49,0.00,,,0.00,WUHU215HW,2013-02-11 21:01:00,
2013-02-11 15:05:00,41.6,23.8,30.04,SW,225,2.9,3.8,49,0.00,,,0.00,WUHU215HW,2013-02-11 21:05:00,
2013-02-11 15:06:00,41.6,23.8,30.04,SW,225,2.9,3.8,49,0.00,,,0.00,WUHU215HW,2013-02-11 21:06:00,
2013-02-11 15:11:00,41.9,24.0,30.04,West,270,0.0,3.8,49,0.00,,,0.00,WUHU215HW,2013-02-11 21:11:00,
2013-02-11 15:12:00,41.9,24.1,30.04,SSW,203,0.0,3.8,49,0.00,,,0.00,WUHU215HW,2013-02-11 21:12:00,
2013-02-11 15:16:00,42.1,24.2,30.04,WSW,248,2.2,2.9,49,0.00,,,0.00,WUHU215HW,2013-02-11 21:16:00,
2013-02-11 15:18:00,41.9,24.0,30.04,WSW,248,0.0,2.2,49,0.00,,,0.00,WUHU215HW,2013-02-11 21:18:00,
2013-02-11 15:21:00,42.0,24.2,30.04,SW,225,2.6,2.6,49,0.00,,,0.00,WUHU215HW,2013-02-11 21:21:00,
2013-02-11 15:24:00,42.2,24.3,30.04,SW,225,2.6,2.6,49,0.00,,,0.00,WUHU215HW,2013-02-11 21:24:00,
2013-02-11 15:26:00,42.3,24.4,30.04,SSW,203,0.0,2.6,49,0.00,,,0.00,WUHU215HW,2013-02-11 21:26:00,
2013-02-11 15:31:00,41.9,24.1,30.04,WNW,293,0.8,2.6,49,0.00,,,0.00,WUHU215HW,2013-02-11 21:31:00,
2013-02-11 15:34:00,42.1,24.2,30.04,WSW,248,0.8,0.8,49,0.00,,,0.00,WUHU215HW,2013-02-11 21:34:00,
2013-02-11 15:39:00,42.0,24.7,30.04,SSE,158,2.6,4.2,50,0.00,,,0.00,WUHU215HW,2013-02-11 21:39:00,
2013-02-11 15:41:00,42.1,24.8,30.04,WNW,293,0.0,4.2,50,0.00,,,0.00,WUHU215HW,2013-02-11 21:41:00,
2013-02-11 15:44:00,42.1,24.7,30.04,West,270,1.5,4.2,50,0.00,,,0.00,WUHU215HW,2013-02-11 21:44:00,
2013-02-11 15:47:00,42.0,24.7,30.04,West,270,1.5,2.6,50,0.00,,,0.00,WUHU215HW,2013-02-11 21:47:00,
2013-02-11 15:52:00,42.0,24.6,30.04,SW,220,0.9,1.5,50,0.00,,,0.00,WUHU215HW,2013-02-11 21:52:00,
2013-02-11 15:54:00,41.9,24.5,30.04,SSW,203,0.6,1.5,50,0.00,,,0.00,WUHU215HW,2013-02-11 21:54:00,
2013-02-11 15:58:00,42.1,24.7,30.04,WNW,293,0.0,2.0,50,0.00,,,0.00,WUHU215HW,2013-02-11 21:58:00,
2013-02-11 16:00:00,42.2,24.8,30.04,West,270,0.0,2.0,50,0.00,,,0.00,WUHU215HW,2013-02-11 22:00:00,
2013-02-11 16:03:00,42.3,25.0,30.04,West,270,1.7,2.0,50,0.00,,,0.00,WUHU215HW,2013-02-11 22:03:00,
2013-02-11 16:05:00,42.2,25.4,30.04,South,180,0.0,2.0,51,0.00,,,0.00,WUHU215HW,2013-02-11 22:05:00,
2013-02-11 16:09:00,42.5,25.6,30.04,South,180,0.0,1.7,51,0.00,,,0.00,WUHU215HW,2013-02-11 22:09:00,
2013-02-11 16:10:00,42.3,24.9,30.04,WNW,293,3.1,3.1,50,0.00,,,0.00,WUHU215HW,2013-02-11 22:10:00,
2013-02-11 16:14:00,42.1,24.7,30.04,West,270,0.0,3.1,50,0.00,,,0.00,WUHU215HW,2013-02-11 22:14:00,
2013-02-11 16:17:00,41.5,24.7,30.04,South,180,0.0,3.1,51,0.00,,,0.00,WUHU215HW,2013-02-11 22:17:00,
2013-02-11 16:20:00,41.3,24.5,30.04,WNW,293,1.1,3.1,51,0.00,,,0.00,WUHU215HW,2013-02-11 22:20:00,
2013-02-11 16:22:00,41.2,24.4,30.04,NNE,23,1.3,1.3,51,0.00,,,0.00,WUHU215HW,2013-02-11 22:22:00,
2013-02-11 16:27:00,40.5,23.8,30.04,WNW,293,0.0,1.3,51,0.00,,,0.00,WUHU215HW,2013-02-11 22:27:00,
2013-02-11 16:28:00,40.5,23.7,30.04,WSW,248,0.0,1.3,51,0.00,,,0.00,WUHU215HW,2013-02-11 22:28:00,
2013-02-11 16:32:00,40.3,23.5,30.04,SSW,203,0.0,1.3,51,0.00,,,0.00,WUHU215HW,2013-02-11 22:32:00,
2013-02-11 16:35:00,40.1,23.9,30.04,South,180,1.3,1.3,52,0.00,,,0.00,WUHU215HW,2013-02-11 22:35:00,
2013-02-11 16:38:00,39.8,23.6,30.04,South,180,1.3,1.3,52,0.00,,,0.00,WUHU215HW,2013-02-11 22:38:00,
2013-02-11 16:43:00,39.6,23.4,30.04,West,270,0.0,1.3,52,0.00,,,0.00,WUHU215HW,2013-02-11 22:43:00,
2013-02-11 16:44:00,39.3,23.1,30.04,West,270,0.0,1.3,52,0.00,,,0.00,WUHU215HW,2013-02-11 22:44:00,
2013-02-11 16:49:00,38.8,22.7,30.04,West,270,0.0,0.0,52,0.00,,,0.00,WUHU215HW,2013-02-11 22:49:00,
2013-02-11 16:50:00,38.8,22.6,30.04,West,270,0.0,0.0,52,0.00,,,0.00,WUHU215HW,2013-02-11 22:50:00,
2013-02-11 16:54:00,38.4,22.8,30.04,SSW,203,1.7,1.7,53,0.00,,,0.00,WUHU215HW,2013-02-11 22:54:00,
2013-02-11 16:58:00,38.3,22.6,30.04,WSW,248,0.0,1.7,53,0.00,,,0.00,WUHU215HW,2013-02-11 22:58:00,
2013-02-11 17:03:00,37.7,22.1,30.04,SSE,158,2.9,2.9,53,0.00,,,0.00,WUHU215HW,2013-02-11 23:03:00,
2013-02-11 17:04:00,37.7,22.1,30.04,SSE,158,2.9,2.9,53,0.00,,,0.00,WUHU215HW,2013-02-11 23:04:00,
2013-02-11 17:09:00,37.5,21.9,30.04,WSW,248,0.0,2.9,53,0.00,,,0.00,WUHU215HW,2013-02-11 23:09:00,
2013-02-11 17:12:00,37.0,21.4,30.04,WSW,248,0.0,2.9,53,0.00,,,0.00,WUHU215HW,2013-02-11 23:12:00,
2013-02-11 17:17:00,36.7,21.6,30.04,NNW,338,0.0,0.0,54,0.00,,,0.00,WUHU215HW,2013-02-11 23:17:00,
2013-02-11 17:18:00,36.7,21.6,30.04,WSW,248,4.9,4.9,54,0.00,,,0.00,WUHU215HW,2013-02-11 23:18:00,
2013-02-11 17:22:00,36.1,21.1,30.04,SW,225,0.0,4.9,54,0.00,,,0.00,WUHU215HW,2013-02-11 23:22:00,
2013-02-11 17:27:00,35.9,20.8,30.04,SW,225,0.0,4.9,54,0.00,,,0.00,WUHU215HW,2013-02-11 23:27:00,
2013-02-11 17:31:00,35.4,20.4,30.04,WSW,248,0.0,0.0,54,0.00,,,0.00,WUHU215HW,2013-02-11 23:31:00,
2013-02-11 17:34:00,35.3,20.3,30.04,WSW,248,0.0,0.0,54,0.00,,,0.00,WUHU215HW,2013-02-11 23:34:00,
2013-02-11 17:37:00,35.1,20.1,30.04,SSW,203,1.5,1.5,54,0.00,,,0.00,WUHU215HW,2013-02-11 23:37:00,
2013-02-11 17:40:00,34.7,20.2,30.04,SW,225,0.0,1.5,55,0.00,,,0.00,WUHU215HW,2013-02-11 23:40:00,
2013-02-11 17:42:00,34.5,20.0,30.04,SW,225,0.0,1.5,55,0.00,,,0.00,WUHU215HW,2013-02-11 23:42:00,
2013-02-11 17:46:00,34.2,19.7,30.04,SW,225,0.0,1.5,55,0.00,,,0.00,WUHU215HW,2013-02-11 23:46:00,
2013-02-11 17:47:00,34.2,19.7,30.04,SW,225,0.0,0.0,55,0.00,,,0.00,WUHU215HW,2013-02-11 23:47:00,
2013-02-11 17:51:00,33.7,19.7,30.04,SW,225,0.0,0.0,56,0.00,,,0.00,WUHU215HW,2013-02-11 23:51:00,
2013-02-11 17:55:00,33.4,19.4,30.04,SW,225,0.0,0.0,56,0.00,,,0.00,WUHU215HW,2013-02-11 23:55:00,
2013-02-11 17:58:00,33.3,19.7,30.04,SW,225,0.0,0.0,57,0.00,,,0.00,WUHU215HW,2013-02-11 23:58:00,
2013-02-11 18:00:00,33.1,19.6,30.04,SW,225,0.0,0.0,57,0.00,,,0.00,WUHU215HW,2013-02-12 00:00:00,
2013-02-11 18:01:00,32.9,19.4,30.04,SW,225,1.1,1.1,57,0.00,,,0.00,WUHU215HW,2013-02-12 00:01:00,
2013-02-11 18:05:00,32.7,19.2,30.04,WSW,248,0.0,1.1,57,0.00,,,0.00,WUHU215HW,2013-02-12 00:05:00,
2013-02-11 18:06:00,32.8,19.2,30.04,WSW,248,0.0,1.1,57,0.00,,,0.00,WUHU215HW,2013-02-12 00:06:00,
2013-02-11 18:10:00,32.9,19.3,30.04,WSW,248,0.0,1.1,57,0.00,,,0.00,WUHU215HW,2013-02-12 00:10:00,
2013-02-11 18:11:00,32.7,19.6,30.04,WSW,248,0.0,1.1,58,0.00,,,0.00,WUHU215HW,2013-02-12 00:11:00,
2013-02-11 18:16:00,32.3,19.2,30.04,WSW,248,0.0,0.0,58,0.00,,,0.00,WUHU215HW,2013-02-12 00:16:00,
2013-02-11 18:17:00,32.4,19.3,30.04,WSW,248,0.0,0.0,58,0.00,,,0.00,WUHU215HW,2013-02-12 00:17:00,
2013-02-11 18:21:00,32.1,19.4,30.04,WSW,248,0.0,0.0,59,0.00,,,0.00,WUHU215HW,2013-02-12 00:21:00,
2013-02-11 18:22:00,31.9,19.3,30.04,WSW,248,0.0,0.0,59,0.00,,,0.00,WUHU215HW,2013-02-12 00:22:00,
2013-02-11 18:27:00,31.6,19.0,30.04,WSW,248,0.0,0.0,59,0.00,,,0.00,WUHU215HW,2013-02-12 00:27:00,
2013-02-11 18:28:00,31.7,19.0,30.04,WSW,248,0.0,0.0,59,0.00,,,0.00,WUHU215HW,2013-02-12 00:28:00,
2013-02-11 18:33:00,31.3,19.0,30.04,WSW,248,0.0,0.0,60,0.00,,,0.00,WUHU215HW,2013-02-12 00:33:00,
2013-02-11 18:34:00,31.3,19.1,30.04,WSW,248,0.0,0.0,60,0.00,,,0.00,WUHU215HW,2013-02-12 00:34:00,
2013-02-11 18:39:00,31.0,19.2,30.04,WSW,248,0.0,0.0,61,0.00,,,0.00,WUHU215HW,2013-02-12 00:39:00,
2013-02-11 18:44:00,31.1,19.2,30.04,WSW,248,0.0,0.0,61,0.00,,,0.00,WUHU215HW,2013-02-12 00:44:00,
2013-02-11 18:45:00,31.1,19.3,30.04,WSW,248,0.0,0.0,61,0.00,,,0.00,WUHU215HW,2013-02-12 00:45:00,
2013-02-11 18:49:00,30.8,19.4,30.04,WSW,248,0.0,0.0,62,0.00,,,0.00,WUHU215HW,2013-02-12 00:49:00,
2013-02-11 18:50:00,30.9,19.4,30.04,WSW,248,0.0,0.0,62,0.00,,,0.00,WUHU215HW,2013-02-12 00:50:00,
2013-02-11 18:55:00,30.9,19.9,30.04,WSW,248,0.0,0.0,63,0.00,,,0.00,WUHU215HW,2013-02-12 00:55:00,
2013-02-11 18:58:00,30.7,19.6,30.04,WSW,248,0.0,0.0,63,0.00,,,0.00,WUHU215HW,2013-02-12 00:58:00,
2013-02-11 19:03:00,30.8,19.8,30.04,WSW,248,0.0,0.0,63,0.00,,,0.00,WUHU215HW,2013-02-12 01:03:00,
2013-02-11 19:05:00,30.7,20.1,30.04,WSW,248,0.0,0.0,64,0.00,,,0.00,WUHU215HW,2013-02-12 01:05:00,
2013-02-11 19:08:00,30.9,20.1,30.04,WSW,248,0.0,0.0,64,0.00,,,0.00,WUHU215HW,2013-02-12 01:08:00,
2013-02-11 19:11:00,30.7,20.1,30.04,WSW,248,0.0,0.0,64,0.00,,,0.00,WUHU215HW,2013-02-12 01:11:00,
2013-02-11 19:13:00,30.7,20.1,30.04,WNW,293,0.0,0.0,64,0.00,,,0.00,WUHU215HW,2013-02-12 01:13:00,
2013-02-11 19:16:00,30.7,20.3,30.04,NNE,23,1.7,1.7,65,0.00,,,0.00,WUHU215HW,2013-02-12 01:16:00,
2013-02-11 19:19:00,30.7,20.3,30.04,NNE,18,0.7,1.7,66,0.00,,,0.00,WUHU215HW,2013-02-12 01:19:00,
2013-02-11 19:22:00,30.7,20.3,30.04,NNW,338,1.1,1.7,67,0.00,,,0.00,WUHU215HW,2013-02-12 01:22:00,
2013-02-11 19:27:00,30.7,21.0,30.04,North,0,3.1,3.1,67,0.00,,,0.00,WUHU215HW,2013-02-12 01:27:00,
2013-02-11 19:28:00,30.7,21.3,30.04,North,0,3.1,3.1,68,0.00,,,0.00,WUHU215HW,2013-02-12 01:28:00,
2013-02-11 19:33:00,30.5,21.2,30.04,NE,45,0.0,3.1,68,0.00,,,0.00,WUHU215HW,2013-02-12 01:33:00,
2013-02-11 19:34:00,30.5,21.2,30.04,NE,45,0.0,3.1,68,0.00,,,0.00,WUHU215HW,2013-02-12 01:34:00,
2013-02-11 19:38:00,30.2,20.8,30.04,NE,45,0.0,3.1,68,0.00,,,0.00,WUHU215HW,2013-02-12 01:38:00,
2013-02-11 19:43:00,29.8,20.6,30.04,NE,45,0.0,0.0,69,0.00,,,0.00,WUHU215HW,2013-02-12 01:43:00,
2013-02-11 19:45:00,29.8,20.6,30.04,NE,45,0.0,0.0,69,0.00,,,0.00,WUHU215HW,2013-02-12 01:45:00,
2013-02-11 19:49:00,29.4,20.6,30.04,NE,45,0.0,0.0,69,0.00,,,0.00,WUHU215HW,2013-02-12 01:49:00,
2013-02-11 19:51:00,29.4,20.9,30.04,NE,45,0.0,0.0,70,0.00,,,0.00,WUHU215HW,2013-02-12 01:51:00,
2013-02-11 19:55:00,29.1,20.5,30.04,NE,45,0.0,0.0,70,0.00,,,0.00,WUHU215HW,2013-02-12 01:55:00,
2013-02-11 19:57:00,29.1,20.5,30.04,NE,45,0.2,0.2,70,0.00,,,0.00,WUHU215HW,2013-02-12 01:57:00,
2013-02-11 20:00:00,28.9,20.4,30.04,NE,45,0.0,0.2,70,0.00,,,0.00,WUHU215HW,2013-02-12 02:00:00,
2013-02-11 20:02:00,28.9,20.4,30.04,NE,45,0.0,0.2,71,0.00,,,0.00,WUHU215HW,2013-02-12 02:02:00,
2013-02-11 20:07:00,28.5,20.4,30.04,NE,45,0.0,0.2,71,0.00,,,0.00,WUHU215HW,2013-02-12 02:07:00,
2013-02-11 20:12:00,28.2,20.3,30.04,NE,45,0.0,0.0,72,0.00,,,0.00,WUHU215HW,2013-02-12 02:12:00,
2013-02-11 20:13:00,28.0,20.1,30.04,NE,45,0.0,0.0,72,0.00,,,0.00,WUHU215HW,2013-02-12 02:13:00,
2013-02-11 20:18:00,28.0,20.1,30.04,NE,45,0.0,0.0,72,0.00,,,0.00,WUHU215HW,2013-02-12 02:18:00,
2013-02-11 20:20:00,27.8,20.3,30.04,NE,45,0.0,0.0,73,0.00,,,0.00,WUHU215HW,2013-02-12 02:20:00,
2013-02-11 20:24:00,27.6,20.1,30.04,NE,45,0.0,0.0,73,0.00,,,0.00,WUHU215HW,2013-02-12 02:24:00,
2013-02-11 20:27:00,27.6,20.1,30.04,NE,45,0.0,0.0,73,0.00,,,0.00,WUHU215HW,2013-02-12 02:27:00,
2013-02-11 20:30:00,27.6,20.1,30.04,NE,45,0.0,0.0,73,0.00,,,0.00,WUHU215HW,2013-02-12 02:30:00,
2013-02-11 20:34:00,27.6,20.1,30.04,NE,45,0.0,0.0,73,0.00,,,0.00,WUHU215HW,2013-02-12 02:34:00,
2013-02-11 20:37:00,27.3,20.0,30.04,NE,45,0.0,0.0,74,0.00,,,0.00,WUHU215HW,2013-02-12 02:37:00,
2013-02-11 20:40:00,27.1,19.9,30.04,NE,45,0.0,0.0,74,0.00,,,0.00,WUHU215HW,2013-02-12 02:40:00,
2013-02-11 20:41:00,27.1,19.9,30.04,NE,45,0.0,0.0,74,0.00,,,0.00,WUHU215HW,2013-02-12 02:41:00,
2013-02-11 20:45:00,27.1,19.9,30.04,NE,45,0.0,0.0,74,0.00,,,0.00,WUHU215HW,2013-02-12 02:45:00,
2013-02-11 20:47:00,27.1,19.9,30.04,NE,45,0.0,0.0,74,0.00,,,0.00,WUHU215HW,2013-02-12 02:47:00,
2013-02-11 20:51:00,26.9,20.0,30.04,NE,45,0.0,0.0,75,0.00,,,0.00,WUHU215HW,2013-02-12 02:51:00,
2013-02-11 20:52:00,26.9,20.0,30.04,NE,45,0.0,0.0,75,0.00,,,0.00,WUHU215HW,2013-02-12 02:52:00,
2013-02-11 20:57:00,26.7,19.8,30.04,NE,45,0.0,0.0,75,0.00,,,0.00,WUHU215HW,2013-02-12 02:57:00,
2013-02-11 20:59:00,26.6,19.6,30.04,NE,45,0.0,0.0,75,0.00,,,0.00,WUHU215HW,2013-02-12 02:59:00,
2013-02-11 21:02:00,26.6,19.6,30.04,NE,45,0.0,0.0,75,0.00,,,0.00,WUHU215HW,2013-02-12 03:02:00,
2013-02-11 21:03:00,26.6,19.6,30.04,NE,45,0.0,0.0,75,0.00,,,0.00,WUHU215HW,2013-02-12 03:03:00,
2013-02-11 21:07:00,26.4,19.4,30.04,NE,45,0.0,0.0,75,0.00,,,0.00,WUHU215HW,2013-02-12 03:07:00,
2013-02-11 21:08:00,26.4,19.4,30.04,NE,45,0.0,0.0,75,0.00,,,0.00,WUHU215HW,2013-02-12 03:08:00,
2013-02-11 21:10:00,26.4,19.4,30.04,NE,45,0.0,0.0,75,0.00,,,0.00,WUHU215HW,2013-02-12 03:10:00,
2013-02-11 21:12:00,26.4,19.7,30.04,NE,45,0.0,0.0,76,0.00,,,0.00,WUHU215HW,2013-02-12 03:12:00,
2013-02-11 21:15:00,26.4,19.7,30.04,NE,45,0.0,0.0,76,0.00,,,0.00,WUHU215HW,2013-02-12 03:15:00,
2013-02-11 21:18:00,26.4,19.7,30.04,NE,45,0.0,0.0,76,0.00,,,0.00,WUHU215HW,2013-02-12 03:18:00,
2013-02-11 21:19:00,26.4,19.7,30.04,NE,45,0.0,0.0,76,0.00,,,0.00,WUHU215HW,2013-02-12 03:19:00,
2013-02-11 21:20:00,26.2,19.7,30.04,NE,45,0.0,0.0,76,0.00,,,0.00,WUHU215HW,2013-02-12 03:20:00,
2013-02-11 21:23:00,26.2,19.7,30.04,NE,45,0.0,0.0,76,0.00,,,0.00,WUHU215HW,2013-02-12 03:23:00,
2013-02-11 21:26:00,26.0,19.2,30.04,NE,45,0.0,0.0,76,0.00,,,0.00,WUHU215HW,2013-02-12 03:26:00,
2013-02-11 21:29:00,25.8,19.2,30.04,NE,45,0.0,0.0,76,0.00,,,0.00,WUHU215HW,2013-02-12 03:29:00,
2013-02-11 21:30:00,25.8,19.2,30.04,NE,45,0.0,0.0,76,0.00,,,0.00,WUHU215HW,2013-02-12 03:30:00,
2013-02-11 21:33:00,25.7,19.1,30.04,NE,45,0.0,0.0,76,0.00,,,0.00,WUHU215HW,2013-02-12 03:33:00,
2013-02-11 21:35:00,25.7,19.4,30.04,NE,45,0.0,0.0,77,0.00,,,0.00,WUHU215HW,2013-02-12 03:35:00,
2013-02-11 21:36:00,25.7,19.4,30.04,NE,45,0.0,0.0,77,0.00,,,0.00,WUHU215HW,2013-02-12 03:36:00,
2013-02-11 21:41:00,25.5,19.2,30.04,NE,45,0.0,0.0,77,0.00,,,0.00,WUHU215HW,2013-02-12 03:41:00,
2013-02-11 21:43:00,25.5,19.2,30.04,NE,45,0.0,0.0,77,0.00,,,0.00,WUHU215HW,2013-02-12 03:43:00,
2013-02-11 21:45:00,25.5,19.2,30.04,NE,45,0.0,0.0,77,0.00,,,0.00,WUHU215HW,2013-02-12 03:45:00,
2013-02-11 21:49:00,25.5,19.2,30.04,NE,45,0.0,0.0,77,0.00,,,0.00,WUHU215HW,2013-02-12 03:49:00,
2013-02-11 21:50:00,25.5,19.2,30.04,NE,45,0.0,0.0,77,0.00,,,0.00,WUHU215HW,2013-02-12 03:50:00,
2013-02-11 21:51:00,25.5,19.2,30.04,NE,45,0.0,0.0,77,0.00,,,0.00,WUHU215HW,2013-02-12 03:51:00,
2013-02-11 21:54:00,25.3,19.2,30.04,NE,45,0.0,0.0,77,0.00,,,0.00,WUHU215HW,2013-02-12 03:54:00,
2013-02-11 21:57:00,25.3,19.2,30.04,NE,45,0.0,0.0,78,0.00,,,0.00,WUHU215HW,2013-02-12 03:57:00,
2013-02-11 21:59:00,25.1,19.2,30.04,NE,45,0.0,0.0,78,0.00,,,0.00,WUHU215HW,2013-02-12 03:59:00,
2013-02-11 22:02:00,25.1,19.2,30.04,NE,45,0.0,0.0,78,0.00,,,0.00,WUHU215HW,2013-02-12 04:02:00,
2013-02-11 22:03:00,25.1,19.2,30.04,NE,45,0.0,0.0,78,0.00,,,0.00,WUHU215HW,2013-02-12 04:03:00,
2013-02-11 22:05:00,25.1,19.2,30.04,NE,45,0.0,0.0,78,0.00,,,0.00,WUHU215HW,2013-02-12 04:05:00,
2013-02-11 22:07:00,24.9,19.0,30.04,NE,45,0.0,0.0,78,0.00,,,0.00,WUHU215HW,2013-02-12 04:07:00,
2013-02-11 22:09:00,24.9,19.0,30.04,NE,45,0.0,0.0,78,0.00,,,0.00,WUHU215HW,2013-02-12 04:09:00,
2013-02-11 22:11:00,24.9,19.0,30.04,NE,45,0.0,0.0,78,0.00,,,0.00,WUHU215HW,2013-02-12 04:11:00,
2013-02-11 22:13:00,24.9,19.0,30.04,NE,45,0.0,0.0,78,0.00,,,0.00,WUHU215HW,2013-02-12 04:13:00,
2013-02-11 22:17:00,24.9,19.0,30.04,NE,45,0.0,0.0,78,0.00,,,0.00,WUHU215HW,2013-02-12 04:17:00,
2013-02-11 22:18:00,24.9,19.0,30.04,NE,45,0.0,0.0,78,0.00,,,0.00,WUHU215HW,2013-02-12 04:18:00,
2013-02-11 22:22:00,24.9,19.0,30.04,NE,45,0.0,0.0,78,0.00,,,0.00,WUHU215HW,2013-02-12 04:22:00,
2013-02-11 22:23:00,24.9,19.0,30.04,NE,45,0.0,0.0,78,0.00,,,0.00,WUHU215HW,2013-02-12 04:23:00,
2013-02-11 22:26:00,24.9,19.4,30.04,NE,45,0.0,0.0,79,0.00,,,0.00,WUHU215HW,2013-02-12 04:26:00,
2013-02-11 22:28:00,24.9,19.4,30.04,NE,45,0.0,0.0,79,0.00,,,0.00,WUHU215HW,2013-02-12 04:28:00,
2013-02-11 22:30:00,24.9,19.4,30.04,NE,45,0.0,0.0,79,0.00,,,0.00,WUHU215HW,2013-02-12 04:30:00,
2013-02-11 22:33:00,24.8,19.2,30.04,NE,45,0.0,0.0,79,0.00,,,0.00,WUHU215HW,2013-02-12 04:33:00,
2013-02-11 22:34:00,24.8,19.2,30.04,NE,45,0.0,0.0,79,0.00,,,0.00,WUHU215HW,2013-02-12 04:34:00,
2013-02-11 22:35:00,24.6,19.2,30.04,NE,45,0.0,0.0,79,0.00,,,0.00,WUHU215HW,2013-02-12 04:35:00,
2013-02-11 22:40:00,24.6,19.2,30.04,NE,45,0.0,0.0,79,0.00,,,0.00,WUHU215HW,2013-02-12 04:40:00,
2013-02-11 22:41:00,24.6,19.0,30.04,NE,45,0.0,0.0,79,0.00,,,0.00,WUHU215HW,2013-02-12 04:41:00,
2013-02-11 22:45:00,24.6,19.0,30.04,NE,45,0.0,0.0,79,0.00,,,0.00,WUHU215HW,2013-02-12 04:45:00,
2013-02-11 22:46:00,24.6,19.0,30.04,NE,45,0.0,0.0,79,0.00,,,0.00,WUHU215HW,2013-02-12 04:46:00,
2013-02-11 22:47:00,24.6,19.0,30.04,NE,45,0.0,0.0,79,0.00,,,0.00,WUHU215HW,2013-02-12 04:47:00,
2013-02-11 22:52:00,24.6,19.0,30.04,NE,45,0.0,0.0,80,0.00,,,0.00,WUHU215HW,2013-02-12 04:52:00,
2013-02-11 22:53:00,24.6,19.0,30.04,NE,45,0.0,0.0,80,0.00,,,0.00,WUHU215HW,2013-02-12 04:53:00,
2013-02-11 22:57:00,24.6,19.4,30.04,NE,45,0.0,0.0,80,0.00,,,0.00,WUHU215HW,2013-02-12 04:57:00,
2013-02-11 22:58:00,24.8,19.4,30.04,NE,45,0.0,0.0,80,0.00,,,0.00,WUHU215HW,2013-02-12 04:58:00,
2013-02-11 23:00:00,24.8,19.5,30.04,NE,45,0.0,0.0,80,0.00,,,0.00,WUHU215HW,2013-02-12 05:00:00,
2013-02-11 23:02:00,24.6,19.4,30.04,NE,45,0.0,0.0,80,0.00,,,0.00,WUHU215HW,2013-02-12 05:02:00,
2013-02-11 23:04:00,24.6,19.4,30.04,NE,45,0.0,0.0,80,0.00,,,0.00,WUHU215HW,2013-02-12 05:04:00,
2013-02-11 23:07:00,24.6,19.4,30.04,NE,45,0.0,0.0,80,0.00,,,0.00,WUHU215HW,2013-02-12 05:07:00,
2013-02-11 23:10:00,24.6,19.4,30.04,NE,45,0.0,0.0,80,0.00,,,0.00,WUHU215HW,2013-02-12 05:10:00,
2013-02-11 23:12:00,24.6,19.4,30.04,NE,45,0.0,0.0,80,0.00,,,0.00,WUHU215HW,2013-02-12 05:12:00,
2013-02-11 23:16:00,24.6,19.4,30.04,NE,45,0.0,0.0,80,0.00,,,0.00,WUHU215HW,2013-02-12 05:16:00,
2013-02-11 23:17:00,24.6,19.4,30.04,NE,45,0.0,0.0,80,0.00,,,0.00,WUHU215HW,2013-02-12 05:17:00,
2013-02-11 23:18:00,24.6,19.4,30.04,NE,45,0.0,0.0,80,0.00,,,0.00,WUHU215HW,2013-02-12 05:18:00,
2013-02-11 23:22:00,24.4,19.2,30.04,NE,45,0.0,0.0,80,0.00,,,0.00,WUHU215HW,2013-02-12 05:22:00,
2013-02-11 23:23:00,24.4,19.2,30.04,NE,45,0.0,0.0,80,0.00,,,0.00,WUHU215HW,2013-02-12 05:23:00,
2013-02-11 23:27:00,24.4,19.2,30.04,NE,45,0.0,0.0,80,0.00,,,0.00,WUHU215HW,2013-02-12 05:27:00,
2013-02-11 23:30:00,24.4,19.2,30.04,NE,45,0.0,0.0,80,0.00,,,0.00,WUHU215HW,2013-02-12 05:30:00,
2013-02-11 23:31:00,24.4,19.2,30.04,NE,45,0.0,0.0,80,0.00,,,0.00,WUHU215HW,2013-02-12 05:31:00,
2013-02-11 23:32:00,24.4,19.2,30.04,NE,45,0.0,0.0,80,0.00,,,0.00,WUHU215HW,2013-02-12 05:32:00,
2013-02-11 23:35:00,24.4,19.2,30.04,NE,45,0.0,0.0,80,0.00,,,0.00,WUHU215HW,2013-02-12 05:35:00,
2013-02-11 23:39:00,24.2,19.0,30.04,NE,45,0.0,0.0,80,0.00,,,0.00,WUHU215HW,2013-02-12 05:39:00,
2013-02-11 23:40:00,24.2,19.0,30.04,NE,45,0.0,0.0,80,0.00,,,0.00,WUHU215HW,2013-02-12 05:40:00,
2013-02-11 23:44:00,24.0,18.8,30.04,NE,45,0.0,0.0,80,0.00,,,0.00,WUHU215HW,2013-02-12 05:44:00,
2013-02-11 23:45:00,24.0,18.8,30.04,NE,45,0.0,0.0,80,0.00,,,0.00,WUHU215HW,2013-02-12 05:45:00,
2013-02-11 23:49:00,24.0,18.8,30.04,NE,45,0.0,0.0,80,0.00,,,0.00,WUHU215HW,2013-02-12 05:49:00,
2013-02-11 23:50:00,24.0,18.8,30.04,NE,45,0.0,0.0,80,0.00,,,0.00,WUHU215HW,2013-02-12 05:50:00,
2013-02-11 23:51:00,24.0,18.8,30.04,NE,45,0.0,0.0,80,0.00,,,0.00,WUHU215HW,2013-02-12 05:51:00,
2013-02-11 23:54:00,23.9,18.6,30.04,NE,45,0.0,0.0,80,0.00,,,0.00,WUHU215HW,2013-02-12 05:54:00,
2013-02-11 23:55:00,23.9,18.6,30.04,NE,45,0.0,0.0,80,0.00,,,0.00,WUHU215HW,2013-02-12 05:55:00,
2013-02-11 23:56:00,23.9,18.9,30.04,NE,45,0.0,0.0,81,0.00,,,0.00,WUHU215HW,2013-02-12 05:56:00,
2013-02-11 23:59:00,23.9,18.9,30.04,NE,45,0.0,0.0,81,0.00,,,0.00,WUHU215HW,2013-02-12 05:59:00,